TimeEDT,TemperatureF,Dew PointF,Humidity,Sea Level PressureIn,VisibilityMPH,Wind Direction,Wind SpeedMPH,Gust SpeedMPH,PrecipitationIn,Events,Conditions,WindDirDegrees,DateUTC
12:53 AM,46.0,42.1,86,30.08,10.0,Calm,Calm,-,N/A,,Clear,0,2011-10-23 04:53:00
1:53 AM,44.1,41.0,89,30.07,10.0,Calm,Calm,-,N/A,,Clear,0,2011-10-23 05:53:00
2:53 AM,44.1,42.1,93,30.06,10.0,Calm,Calm,-,N/A,,Clear,0,2011-10-23 06:53:00
3:53 AM,43.0,41.0,93,30.05,10.0,Calm,Calm,-,N/A,,Clear,0,2011-10-23 07:53:00
4:53 AM,42.1,39.9,92,30.06,10.0,WNW,3.5,-,N/A,,Clear,290,2011-10-23 08:53:00
5:53 AM,42.1,39.9,92,30.08,10.0,Calm,Calm,-,N/A,,Clear,0,2011-10-23 09:53:00
6:53 AM,41.0,39.0,93,30.10,10.0,Calm,Calm,-,N/A,,Clear,0,2011-10-23 10:53:00
7:53 AM,41.0,37.9,89,30.11,10.0,Calm,Calm,-,N/A,,Clear,0,2011-10-23 11:53:00
8:53 AM,44.1,41.0,89,30.12,10.0,NW,3.5,-,N/A,,Clear,310,2011-10-23 12:53:00
9:53 AM,48.2,42.8,82,30.16,10.0,WNW,3.5,-,N/A,,Clear,300,2011-10-23 13:53:00
10:53 AM,55.0,45.0,69,30.12,10.0,Calm,Calm,-,N/A,,Clear,0,2011-10-23 14:53:00
11:53 AM,60.1,45.0,57,30.12,10.0,Calm,Calm,-,N/A,,Clear,0,2011-10-23 15:53:00
12:53 PM,63.0,44.1,50,30.10,10.0,Calm,Calm,-,N/A,,Clear,0,2011-10-23 16:53:00
1:53 PM,64.9,44.1,47,30.06,10.0,Variable,3.5,-,N/A,,Clear,0,2011-10-23 17:53:00
2:53 PM,66.0,44.1,45,30.04,10.0,Variable,5.8,-,N/A,,Clear,0,2011-10-23 18:53:00
3:53 PM,66.0,43.0,43,30.03,10.0,SSW,6.9,-,N/A,,Clear,200,2011-10-23 19:53:00
4:53 PM,66.0,42.1,42,30.03,10.0,SSW,4.6,-,N/A,,Clear,200,2011-10-23 20:53:00
5:53 PM,64.9,43.0,45,30.03,10.0,South,4.6,-,N/A,,Clear,190,2011-10-23 21:53:00
6:53 PM,57.9,45.0,62,30.05,10.0,Calm,Calm,-,N/A,,Clear,0,2011-10-23 22:53:00
7:53 PM,57.2,44.6,63,30.10,10.0,Calm,Calm,-,N/A,,Clear,0,2011-10-23 23:53:00
8:53 PM,55.0,45.0,69,30.08,10.0,Calm,Calm,-,N/A,,Clear,0,2011-10-24 00:53:00
9:53 PM,53.1,45.0,74,30.09,10.0,Calm,Calm,-,N/A,,Clear,0,2011-10-24 01:53:00
10:53 PM,51.1,46.0,83,30.09,10.0,Calm,Calm,-,N/A,,Clear,0,2011-10-24 02:53:00
11:53 PM,50.0,48.0,93,30.09,10.0,Calm,Calm,-,N/A,,Clear,0,2011-10-24 03:53:00